Regional Weather Roundup
Issued by NWS

Home | Current Version | Previous Version | Graphics & Text | Print | Product List | Glossary On
Versions: 1 2 3 4 5 6 7 8 9 10 11 12 13 14 15 16 17 18 19 20 21 22 23 24 25 26 27 28 29 30 31 32 33 34 35 36 37 38 39 40 41 42 43 44 45 46 47 48 49 50
000
ASUS43 KMKX 200011
RWRWI

WISCONSIN REGIONAL WEATHER ROUNDUP
NATIONAL WEATHER SERVICE MILWAUKEE/SULLIVAN WI
700 PM CDT THU OCT 19 2017

NOTE: "FAIR" INDICATES FEW OR NO CLOUDS BELOW 12,000 FEET WITH NO
SIGNIFICANT WEATHER AND/OR OBSTRUCTIONS TO VISIBILITY.

WIZ001-002-006>008-014>016-023>028-200100-
NORTHWEST WISCONSIN

CITY           SKY/WX    TMP DP  RH WIND       PRES   REMARKS
SUPERIOR ARPT  CLOUDY    64  36  35 SW8       29.90S
6HR MIN TEMP:  62; 6HR MAX TEMP:  71;

ASHLAND        CLOUDY    59  34  39 S6        29.94R
6HR MIN TEMP:  58; 6HR MAX TEMP:  71;

HAYWARD        CLEAR     60  33  36 S7        29.96F
6HR MIN TEMP:  58; 6HR MAX TEMP:  69;

SIREN          CLEAR     61  35  37 S6        29.94F
6HR MIN TEMP:  61; 6HR MAX TEMP:  72;

CUMBERLAND     CLEAR     55  36  47 S8        29.98S
RICE LAKE      CLEAR     59  36  42 SE8       30.00S
6HR MIN TEMP:  59; 6HR MAX TEMP:  70;

CHETEK         CLEAR     61  37  40 SE10      30.00S
6HR MIN TEMP:  60; 6HR MAX TEMP:  70;

LADYSMITH      CLEAR     60  35  38 S6        30.03R
6HR MIN TEMP:  60; 6HR MAX TEMP:  68;

EAU CLAIRE     CLEAR     60  36  40 S8        30.00S
6HR MIN TEMP:  60; 6HR MAX TEMP:  71;

MENOMONIE      CLEAR     59  36  41 E5        30.00S
6HR MIN TEMP:  59; 6HR MAX TEMP:  72;

NEW RICHMOND   CLEAR     61  33  35 S6        29.98R
6HR MIN TEMP:  60; 6HR MAX TEMP:  71;

OSCEOLA        CLEAR     61  36  39 SE6       29.98F
6HR MIN TEMP:  61; 6HR MAX TEMP:  73;

$$

WIZ003>005-009-010-017-018-200100-
NORTH CENTRAL WISCONSIN

CITY           SKY/WX    TMP DP  RH WIND       PRES   REMARKS
MANITOWISH WTR MOCLDY    55  32  41 S5        30.01R
6HR MIN TEMP:  55; 6HR MAX TEMP:  65;

ARBOR VITAE    PTCLDY    57  35  43 S7        30.02R
6HR MIN TEMP:  57; 6HR MAX TEMP:  65;

WOODRUFF       PTCLDY    57  35  43 S7        30.02R
6HR MIN TEMP:  57; 6HR MAX TEMP:  65;

RHINELANDER    CLEAR     58  33  39 S6        30.04S
6HR MIN TEMP:  58; 6HR MAX TEMP:  67;

EAGLE RIVER    PTCLDY    56  28  33 S3        30.03R
6HR MIN TEMP:  56; 6HR MAX TEMP:  64;

LAND O LAKES   PTCLDY    49  37  61 SE3       30.03S
6HR MIN TEMP:  49; 6HR MAX TEMP:  65;

PHILLIPS       CLEAR     56  33  41 S6        30.01S
6HR MIN TEMP:  56; 6HR MAX TEMP:  66;

TOMAHAWK       CLEAR     50  36  58 CALM      30.04S
6HR MIN TEMP:  50; 6HR MAX TEMP:  66;

MEDFORD        CLEAR     53  36  53 S7        30.03F
6HR MIN TEMP:  53; 6HR MAX TEMP:  66;

MERRILL        CLEAR     59  34  38 S3        30.05S
6HR MIN TEMP:  59; 6HR MAX TEMP:  69;

$$

WIZ029-030-035-036-043>047-200100-
CENTRAL WISCONSIN

CITY           SKY/WX    TMP DP  RH WIND       PRES   REMARKS
WAUSAU         CLEAR     59  34  39 SE5       30.04S
6HR MIN TEMP:  59; 6HR MAX TEMP:  68;

MOSINEE        PTCLDY    55  36  47 S7        30.07S
MARSHFIELD     CLEAR     58  33  39 S9        30.05S
6HR MIN TEMP:  58; 6HR MAX TEMP:  70;

STEVENS POINT  CLEAR     53  35  51 S3        30.08R
6HR MIN TEMP:  52; 6HR MAX TEMP:  67;

WAUPACA        CLEAR     59  34  39 CALM      30.08S
6HR MIN TEMP:  59; 6HR MAX TEMP:  72;

WAUTOMA        CLEAR     61  35  37 S7        30.09S
6HR MIN TEMP:  61; 6HR MAX TEMP:  72;

WISC RAPIDS    CLEAR     59  36  42 S7        30.08S
6HR MIN TEMP:  58; 6HR MAX TEMP:  70;

CAMP DOUGLAS   CLEAR     55  36  47 CALM      30.07S
$$

WIZ011>013-019>022-031-037>040-048>050-200100-
NORTHEAST WISCONSIN

CITY           SKY/WX    TMP DP  RH WIND       PRES   REMARKS
ANTIGO         CLEAR     52  35  52 S6        30.07S
6HR MIN TEMP:  52; 6HR MAX TEMP:  64;

SHAWANO        CLEAR     61  32  34 CALM      30.06F
6HR MIN TEMP:  60; 6HR MAX TEMP:  70;

OCONTO         CLEAR     58  34  41 CALM      30.06S
6HR MIN TEMP:  54; 6HR MAX TEMP:  68;

STURGEON BAY   CLEAR     58  37  45 S9        30.08S
6HR MIN TEMP:  58; 6HR MAX TEMP:  66;

GREEN BAY      CLEAR     59  39  47 S6        30.08S
6HR MIN TEMP:  59; 6HR MAX TEMP:  69;

MANITOWOC      CLEAR     54  42  64 S7        30.11S
6HR MIN TEMP:  53; 6HR MAX TEMP:  67;

APPLETON       PTCLDY    57  30  35 VRB5      30.07S
CLINTONVILLE   CLEAR     54  37  54 S3        30.07S
OSHKOSH        CLEAR     55  37  50 S7        30.09S
6HR MIN TEMP:  53; 6HR MAX TEMP:  68;

$$

WIZ032>034-041-042-053>061-200100-
SOUTHWEST WISCONSIN

CITY           SKY/WX    TMP DP  RH WIND       PRES   REMARKS
LA CROSSE      CLEAR     61  39  44 SE8       30.04F
6HR MIN TEMP:  61; 6HR MAX TEMP:  71;

SPARTA         CLEAR     54  40  59 CALM      30.07S
6HR MIN TEMP:  54; 6HR MAX TEMP:  71;

VIROQUA        CLEAR     59  38  45 S8        30.08F
6HR MIN TEMP:  58; 6HR MAX TEMP:  70;

BOSCOBEL       CLEAR     60  39  45 CALM      30.09S
6HR MIN TEMP:  60; 6HR MAX TEMP:  74;

PRAIRIE DU CHI CLEAR     61  36  39 E3        30.08S
6HR MIN TEMP:  61; 6HR MAX TEMP:  71;

PLATTEVILLE    PTCLDY    60  37  41 SE7       30.11S
6HR MIN TEMP:  59; 6HR MAX TEMP:  71;

$$

WIZ056-057-062-063-064-067-068-200100-
SOUTH CENTRAL WISCONSIN

CITY           SKY/WX    TMP DP  RH WIND       PRES   REMARKS
REEDSBURG      CLEAR     61  35  38 CALM      30.09S
6HR MIN TEMP:  61; 6HR MAX TEMP:  71;

BARABOO/DELLS  CLEAR     56  34  43 S6        30.09F
6HR MIN TEMP:  56; 6HR MAX TEMP:  70;

LONE ROCK      CLEAR     53  42  66 CALM      30.10R
6HR MIN TEMP:  53; 6HR MAX TEMP:  71;

MINERAL POINT  CLEAR     61  32  33 S5        30.11S
MADISON        MOCLDY    61  37  41 S6        30.11S
6HR MIN TEMP:  61; 6HR MAX TEMP:  68;

MIDDLETON      CLEAR     55  40  56 CALM      30.12R
6HR MIN TEMP:  55; 6HR MAX TEMP:  71;

WATERTOWN      CLEAR     53  38  56 S6        30.12S
6HR MIN TEMP:  53; 6HR MAX TEMP:  69;

MONROE         CLEAR     61  30  31 S10       30.12S
JANESVILLE     MOCLDY    63  34  34 VRB6      30.13S
$$

WIZ051-052-058>065-066-070>072-200100-
SOUTHEAST WISCONSIN

CITY           SKY/WX    TMP DP  RH WIND       PRES   REMARKS
MILWAUKEE      PTCLDY    58  26  29 S6        30.16R
6HR MIN TEMP:  58; 6HR MAX TEMP:  68;

WAUKESHA       CLEAR     55  34  44 SE6       30.15R
MILWAUKEE/TIMM CLEAR     59  27  29 S8        30.15R
RACINE         CLEAR     57  22  25 S7        30.17S
6HR MIN TEMP:  57; 6HR MAX TEMP:  65;

BURLINGTON     CLEAR     55  36  47 SE6       30.15S
6HR MIN TEMP:  55; 6HR MAX TEMP:  70;

KENOSHA        CLEAR     54  27  35 S8        30.16S
6HR MIN TEMP:  54; 6HR MAX TEMP:  69;

FOND DU LAC    CLEAR     57  33  40 S7        30.11R
6HR MIN TEMP:  57; 6HR MAX TEMP:  70;

SHEBOYGAN      CLEAR     51  38  60 S5        30.12R
6HR MIN TEMP:  51; 6HR MAX TEMP:  69;

WEST BEND      CLEAR     57  32  38 CALM      30.13R
JUNEAU         CLEAR     57  34  42 S7        30.13R
6HR MIN TEMP:  57; 6HR MAX TEMP:  68;

$$

LSZ147-162-200100-
LAKE SUPERIOR

STATION/POSITION TIME  TEMP    WIND        PRES    WAVE
                       AIR SEA DIR/SP/G            HT/PER
                 (UTC) (F)     (DEG/KT/KT) (MB)    (FT/S)
W MID LAKE BUOY  2350   57 52              1013.3F   2/ 4
DEVILS ISLAND    0000   62     170/ 10/ 11 1013.1S
SAXON HARBOR     2330   58     160/  2/  4 1013.2F
$$

LMZ867-665-643>646-200100-
LAKE MICHIGAN

STATION/POSITION TIME  TEMP    WIND        PRES    WAVE
                       AIR SEA DIR/SP/G            HT/PER
                 (UTC)


USA.gov is the U.S. government's official web portal to all federal, state and local government web resources and services.